[[{"header":{"parameterUnit":"m.s-1","parameterCategory":1,"la1":30.2991,"la2":30.254,"lo1":-89.0895,"lo2":-89.0444,"dy":0.0017,"dx":0.0017,"nx":28,"ny":28,"refTime":"2025-02-05T09:00:00:Z","depth":0,"parameterNumber":2,"parameterNumberName":"U-component_of_WINDS"},"data":[0,0,0,0,0,0,0,0,0,0,0,0,0,0,0,0,0,0,0,0,0,0,0,0,0,0,0,0,0,0,0,0,0,0,0,0,0,0,0,0,0,0,0,0,0,0,0,0,0,0,0,0,0,0,0,0,0,0,-0.7168,-0.7168,0,-0.7202,-0.7203,-0.7203,-0.7225,-0.7225,-0.7225,-0.7225,-0.7261,-0.7262,-0.7263,0,0,0,0,0,0,0,0,0,0,0,0,0,-0.7121,-0.7121,-0.7168,-0.7168,-0.7169,-0.7202,-0.7203,-0.7203,-0.7225,-0.7225,-0.7225,-0.7225,-0.7261,-0.7262,-0.7263,0,0,0,0,0,0,0,0,0,0,0,0,0,-0.7147,-0.7122,-0.7168,-0.7183,-0.7185,-0.7202,-0.7203,-0.7203,-0.7225,-0.7225,-0.7225,-0.7225,-0.7261,-0.7262,-0.7263,-0.7268,0,0,-0.7267,-0.7268,0,0,0,0,0,0,0,0,-0.7145,-0.7148,-0.7181,-0.7182,-0.7184,-0.7209,-0.72,-0.7225,-0.7224,-0.721,-0.7225,-0.7225,-0.7244,-0.7247,-0.7253,-0.727,-0.7271,-0.7267,-0.7268,-0.7269,-0.7269,0,0,0,0,0,0,0,-0.7143,-0.7147,-0.7181,-0.7181,-0.7183,-0.7189,-0.7193,-0.7204,-0.7225,-0.7211,-0.7213,-0.7216,-0.7245,-0.7251,-0.7254,-0.7272,-0.7267,-0.7268,-0.7269,-0.727,-0.7293,-0.7293,0,0,0,0,0,0,-0.7139,-0.7145,-0.718,-0.7183,-0.7165,-0.7189,-0.7194,-0.7201,-0.7225,-0.7229,-0.7216,-0.7217,-0.7249,-0.7252,-0.7255,-0.7261,-0.7269,-0.727,-0.7271,-0.7293,-0.7293,-0.7293,0,0,0,0,0,0,-0.7138,-0.7142,-0.7179,-0.7164,-0.717,-0.719,-0.7198,-0.7202,-0.7208,-0.7229,-0.7233,-0.7219,-0.7249,-0.7253,-0.7264,-0.7263,-0.727,-0.7272,-0.7293,-0.7293,-0.7293,-0.7274,0,0,0,0,0,0,-0.7137,-0.7141,-0.7143,-0.7164,-0.717,-0.7187,-0.7198,-0.7202,-0.721,-0.7212,-0.7233,-0.7236,-0.725,-0.7262,-0.7265,-0.7265,-0.7273,-0.7293,-0.7293,-0.7293,-0.7275,-0.7273,-0.7272,0,0,0,0,0,-0.7135,-0.7137,-0.7143,-0.7147,-0.7173,-0.7187,-0.7191,-0.7206,-0.721,-0.7212,-0.7225,-0.7236,-0.7263,-0.7263,-0.7267,-0.7267,-0.7294,-0.7293,-0.7293,-0.7276,-0.7274,-0.7272,0,0,0,0,0,0,-0.7116,-0.714,-0.7147,-0.7157,-0.717,-0.7191,-0.7194,-0.7203,-0.7216,-0.7217,-0.7235,-0.724,-0.7248,-0.7259,-0.7259,-0.7272,-0.7279,-0.728,-0.7265,-0.7263,-0.7262,-0.7259,-0.7274,0,0,0,0,0,-0.7113,-0.7123,-0.7143,-0.7149,-0.7155,-0.7173,-0.718,-0.719,-0.7205,-0.7211,-0.7225,-0.7239,-0.725,-0.7257,-0.7269,-0.7277,-0.7281,-0.7278,-0.7277,-0.7275,-0.7275,-0.7279,-0.7278,-0.7291,-0.7291,-0.7291,0,0,-0.7107,-0.7122,-0.7127,-0.7146,-0.7157,-0.7166,-0.7178,-0.7187,-0.7194,-0.7212,-0.7223,-0.7234,-0.725,-0.7259,-0.7264,-0.7268,-0.7273,-0.7275,-0.7274,-0.7275,-0.7279,-0.7277,-0.7276,-0.7291,-0.7291,-0.7291,0,0,-0.7101,-0.7113,-0.7119,-0.713,-0.7146,-0.7158,-0.7159,-0.7179,-0.7186,-0.7197,-0.7211,-0.7219,-0.7239,-0.725,-0.7258,-0.7254,-0.7264,-0.7257,-0.7249,-0.7253,-0.7252,-0.7251,-0.7249,-0.7248,-0.7257,-0.7257,-0.7257,0,-0.7092,-0.7106,-0.7121,-0.7129,-0.7137,-0.7153,-0.7159,-0.7169,-0.7188,-0.7193,-0.7198,-0.7222,-0.7234,-0.7245,-0.7244,-0.7251,-0.7252,-0.7255,-0.725,-0.725,-0.7249,-0.7247,-0.7247,-0.7256,-0.7257,-0.7257,-0.7257,0,-0.7093,-0.7102,-0.7105,-0.7123,-0.7131,-0.7138,-0.7154,-0.7161,-0.717,-0.7181,-0.7192,-0.7207,-0.7222,-0.7225,-0.7235,-0.7238,-0.724,-0.7247,-0.7255,-0.7247,-0.7245,-0.7245,-0.7255,-0.7255,-0.7256,-0.7256,0,0,-0.7077,-0.7102,-0.7102,-0.711,-0.7129,-0.7136,-0.7144,-0.7158,-0.7162,-0.7175,-0.7182,-0.7197,-0.7204,-0.7213,-0.7224,-0.7227,-0.7222,-0.7234,-0.7235,-0.7231,-0.7225,-0.7219,-0.7218,-0.7229,-0.7229,-0.7229,-0.7223,0,-0.7073,-0.7086,-0.71,-0.7109,-0.7117,-0.7132,-0.7138,-0.715,-0.7161,-0.717,-0.7181,-0.7192,-0.72,-0.7205,-0.7209,-0.7222,-0.7221,-0.7223,-0.7235,-0.7235,-0.7229,-0.7217,-0.7211,-0.7205,-0.7223,-0.7223,-0.7223,0,-0.707,-0.7081,-0.709,-0.7107,-0.7111,-0.7117,-0.713,-0.7138,-0.7152,-0.7159,-0.7169,-0.718,-0.7188,-0.7195,-0.7206,-0.7207,-0.7213,-0.722,-0.722,-0.7221,-0.7228,-0.7218,-0.7204,-0.7203,-0.7222,-0.7222,-0.7222,0,-0.7056,-0.7074,-0.7081,-0.7087,-0.7108,-0.7111,-0.7119,-0.7133,-0.714,-0.7152,-0.7156,-0.7169,-0.7175,-0.7185,-0.7199,-0.7203,-0.7209,-0.7217,-0.7215,-0.7214,-0.7215,-0.7215,-0.7201,-0.722,-0.722,-0.722,-0.722,0,-0.705,-0.7055,-0.7075,-0.708,-0.7086,-0.7101,-0.7106,-0.7116,-0.7128,-0.7135,-0.7149,-0.7155,-0.7173,-0.7181,-0.7193,-0.72,-0.7203,-0.7209,-0.7212,-0.7208,-0.7207,-0.7211,-0.7212,-0.7219,-0.7219,-0.7219,-0.722,0,-0.7036,-0.705,-0.7059,-0.7076,-0.7081,-0.7084,-0.7099,-0.7104,-0.7115,-0.7123,-0.7126,-0.7143,-0.7153,-0.7168,-0.7184,-0.7191,-0.7196,-0.7201,-0.7191,-0.7193,-0.719,-0.7189,-0.7179,-0.7177,-0.7197,-0.7196,-0.7196,0,-0.7031,-0.7035,-0.7053,-0.7058,-0.7065,-0.7074,-0.708,-0.7095,-0.7102,-0.7117,-0.712,-0.7131,-0.7141,-0.7156,-0.717,-0.7182,-0.7186,-0.7182,-0.7188,-0.7183,-0.7185,-0.7185,-0.7185,-0.718,-0.718,-0.718,-0.7179,0,-0.7021,-0.7027,-0.7036,-0.7046,-0.7054,-0.7063,-0.7073,-0.7077,-0.7094,-0.71,-0.711,-0.7118,-0.7132,-0.7143,-0.7156,-0.7165,-0.7175,-0.7177,-0.7177,-0.7173,-0.7166,-0.7169,-0.7186,-0.7177,-0.7178,-0.7178,-0.7178,-0.7178,-0.7011,-0.7014,-0.7027,-0.7036,-0.7045,-0.7053,-0.7058,-0.7069,-0.7078,-0.709,-0.7099,-0.7108,-0.7121,-0.7139,-0.7147,-0.7155,-0.7159,-0.7159,-0.7159,-0.7159,-0.7157,-0.7165,-0.7158,-0.7158,-0.7158,-0.7158,-0.7158,0,-0.7,-0.7008,-0.7017,-0.703,-0.7036,-0.7044,-0.7056,-0.7061,-0.7069,-0.708,-0.7088,-0.7099,-0.7109,-0.7123,-0.7134,-0.7138,-0.7142,-0.714,-0.714,-0.7141,-0.7153,-0.7152,-0.7136,-0.7136,-0.7136,-0.7136,-0.7136,-0.7136,-0.6995,-0.7002,-0.7009,-0.702,-0.7028,-0.7037,-0.7042,-0.705,-0.7059,-0.707,-0.7078,-0.7087,-0.7099,-0.7111,-0.712,-0.7124,-0.7127,-0.7123,-0.7128,-0.7139,-0.7141,-0.7143,-0.7141,-0.7124,-0.7124,-0.7116,-0.7116,-0.7116]},{"header":{"parameterUnit":"m.s-1","parameterCategory":1,"la1":30.2991,"la2":30.254,"lo1":-89.0895,"lo2":-89.0444,"dy":0.0017,"dx":0.0017,"nx":28,"ny":28,"refTime":"2025-02-05T09:00:00:Z","depth":0,"parameterNumber":3,"parameterNumberName":"V-component_of_WINDS"},"data":[0,0,0,0,0,0,0,0,0,0,0,0,0,0,0,0,0,0,0,0,0,0,0,0,0,0,0,0,0,0,0,0,0,0,0,0,0,0,0,0,0,0,0,0,0,0,0,0,0,0,0,0,0,0,0,0,0,0,2.2404,2.2405,0,2.248,2.2481,2.2482,2.2478,2.2477,2.2476,2.2475,2.2552,2.2555,2.2558,0,0,0,0,0,0,0,0,0,0,0,0,0,2.2257,2.226,2.2404,2.2405,2.2406,2.248,2.2481,2.2482,2.2478,2.2477,2.2476,2.2474,2.2551,2.2555,2.2558,0,0,0,0,0,0,0,0,0,0,0,0,0,2.2326,2.2261,2.2404,2.2413,2.2415,2.248,2.2481,2.2482,2.2478,2.2477,2.2475,2.2474,2.255,2.2554,2.2559,2.262,0,0,2.2573,2.2575,0,0,0,0,0,0,0,0,2.2322,2.2331,2.2411,2.2413,2.2415,2.2468,2.2457,2.2528,2.2479,2.2454,2.2475,2.2473,2.2525,2.2532,2.255,2.2623,2.2627,2.2573,2.2576,2.2578,2.2579,0,0,0,0,0,0,0,2.2317,2.2328,2.2434,2.2412,2.2414,2.2414,2.2422,2.2471,2.2498,2.2456,2.2456,2.2465,2.2526,2.2545,2.2551,2.2628,2.2573,2.2577,2.258,2.2582,2.2756,2.2758,0,0,0,0,0,0,2.231,2.2324,2.2432,2.2437,2.2363,2.2418,2.2427,2.2452,2.2497,2.2503,2.2467,2.2465,2.2538,2.2546,2.2554,2.2629,2.2578,2.2582,2.2585,2.2754,2.2757,2.2759,0,0,0,0,0,0,2.2307,2.232,2.2429,2.238,2.2394,2.2422,2.2451,2.2455,2.2474,2.2505,2.251,2.2481,2.2537,2.2548,2.2604,2.2632,2.2584,2.2589,2.2752,2.2755,2.2758,2.278,0,0,0,0,0,0,2.2303,2.2319,2.2342,2.2381,2.2397,2.2477,2.2453,2.2457,2.2482,2.248,2.252,2.2525,2.2537,2.2597,2.2608,2.2637,2.2592,2.275,2.2754,2.2757,2.2777,2.2783,2.2788,0,0,0,0,0,2.2298,2.2345,2.2343,2.2356,2.2426,2.2479,2.2488,2.25,2.2484,2.2508,2.2528,2.2524,2.2627,2.2603,2.2615,2.2646,2.2748,2.2752,2.2757,2.2774,2.2782,2.2788,0,0,0,0,0,0,2.2309,2.235,2.2349,2.241,2.2441,2.2478,2.2508,2.2508,2.2544,2.2541,2.2555,2.2564,2.262,2.2639,2.2611,2.2708,2.2685,2.2692,2.2694,2.2702,2.2707,2.2702,2.2596,0,0,0,0,0,2.2318,2.2357,2.2391,2.2442,2.2458,2.248,2.2504,2.2511,2.2543,2.2556,2.258,2.2612,2.2652,2.2678,2.2716,2.2779,2.2788,2.2806,2.2812,2.2817,2.2823,2.2859,2.2868,2.2773,2.2773,2.2772,0,0,2.2339,2.2366,2.239,2.2445,2.247,2.251,2.2492,2.2535,2.2565,2.2563,2.2618,2.2636,2.2673,2.2733,2.2761,2.275,2.2851,2.2822,2.2826,2.283,2.2864,2.2873,2.2881,2.2775,2.2775,2.2774,0,0,2.2396,2.2421,2.2466,2.2491,2.2529,2.2544,2.2555,2.2592,2.2605,2.266,2.266,2.2696,2.2763,2.279,2.2812,2.288,2.2878,2.2892,2.2923,2.2958,2.2966,2.2972,2.2998,2.3007,2.2898,2.2898,2.2898,0,2.2417,2.2478,2.249,2.2534,2.2559,2.2558,2.2605,2.2629,2.2677,2.2694,2.2682,2.2767,2.2791,2.2858,2.2875,2.2893,2.2906,2.2888,2.2963,2.297,2.2977,2.3002,2.3011,2.29,2.2899,2.2899,2.2899,0,2.2502,2.2544,2.2576,2.2623,2.2651,2.2696,2.2716,2.2743,2.2747,2.2763,2.282,2.2849,2.2894,2.291,2.2914,2.2978,2.297,2.296,2.2938,2.2987,2.3011,2.302,2.2902,2.2901,2.2901,2.29,0,0,2.2569,2.2622,2.2634,2.2656,2.2698,2.2731,2.2776,2.282,2.2843,2.2876,2.2915,2.2973,2.2964,2.299,2.2997,2.3027,2.3081,2.3014,2.3015,2.3027,2.3154,2.3163,2.3173,2.308,2.3081,2.3083,2.3152,0,2.2632,2.2713,2.2725,2.2796,2.2836,2.2836,2.2876,2.2906,2.2922,2.2958,2.2976,2.3017,2.3002,2.3018,2.3048,2.3068,2.3107,2.3063,2.3117,2.3118,2.3109,2.3185,2.3194,2.3257,2.3161,2.3162,2.3163,0,2.2717,2.2753,2.2828,2.2865,2.2882,2.2918,2.2959,2.2994,2.3028,2.3038,2.3066,2.307,2.3118,2.3092,2.3158,2.3128,2.3151,2.3164,2.3167,2.3173,2.3145,2.3195,2.3278,2.3288,2.3178,2.3177,2.3176,0,2.276,2.2827,2.2881,2.29,2.2944,2.2969,2.2989,2.3022,2.3047,2.3083,2.3101,2.3141,2.3164,2.3196,2.3211,2.3191,2.3277,2.3252,2.3287,2.3287,2.3306,2.3305,2.3395,2.3318,2.3318,2.3318,2.3318,0,2.2831,2.2877,2.2902,2.2935,2.2987,2.3,2.3052,2.307,2.31,2.3137,2.3139,2.3174,2.3191,2.3229,2.3241,2.3294,2.3304,2.3314,2.3317,2.3315,2.3314,2.3331,2.3327,2.332,2.332,2.3319,2.3319,0,2.2888,2.2907,2.2966,2.3003,2.3013,2.305,2.3082,2.3115,2.3131,2.3178,2.319,2.3215,2.326,2.3278,2.3332,2.334,2.3402,2.3401,2.3391,2.3392,2.3426,2.3423,2.3531,2.3547,2.3458,2.3459,2.346,0,2.2933,2.2968,2.3009,2.3035,2.3055,2.3096,2.3122,2.3136,2.3164,2.3206,2.3234,2.3278,2.3315,2.3386,2.3409,2.3451,2.3452,2.3487,2.3458,2.3455,2.3454,2.3452,2.3457,2.3493,2.3493,2.3494,2.3495,0,2.301,2.3017,2.3055,2.3097,2.3128,2.3161,2.3194,2.3214,2.3234,2.3265,2.3311,2.3339,2.3395,2.3439,2.3482,2.3503,2.3503,2.3503,2.3514,2.3513,2.3506,2.3511,2.3407,2.3501,2.3501,2.35,2.35,2.3499,2.3063,2.3095,2.3129,2.3172,2.3198,2.3228,2.3261,2.3281,2.332,2.3366,2.3372,2.3422,2.3456,2.3514,2.3536,2.3575,2.3566,2.3581,2.3585,2.3589,2.3592,2.3499,2.3583,2.3582,2.3582,2.3582,2.3582,0,2.3141,2.3163,2.3202,2.3248,2.3282,2.3278,2.3314,2.3342,2.3386,2.3417,2.3453,2.3506,2.3549,2.3576,2.362,2.3646,2.3647,2.3657,2.3656,2.3661,2.3596,2.3584,2.3656,2.3656,2.3656,2.3656,2.3656,2.3656,2.3186,2.3241,2.3252,2.332,2.3342,2.339,2.3411,2.3439,2.3465,2.3524,2.356,2.3577,2.3607,2.3653,2.3693,2.37,2.3716,2.3727,2.3734,2.3673,2.3665,2.3658,2.3646,2.373,2.373,2.3795,2.3796,2.3796]}]]